SCOUT B R/B, 3341

Orbit data source: Space-Track

SCOUT B R/B, 3341 is space debris in LEO originally from a launch on Thu, 08 Aug 1968 UTC launched from the Air Force Western Test Range (AFWTR). Debris objects in space refer to the collection of defunct objects orbiting the Earth. Examples of debris include non-operational satellites, rocket bodies, and fragments generated from explosions, collisions, or faulty payload assembly.

Loading next visibility...
Identifier
3341, 1968-066C
Orbit
LEO
Last TLE update
1 day ago
Origin
Manufacturer
UTC
Mission
Spacecraft
Bus & Motor
FW4, Unknown motor
Mass
47 kg wet, 47 kg dry
Launch date (UTC)
1968-08-08 (57 years ago)
Launch vehicle
Unknown
Launch site
Air Force Western Test Range (AFWTR)
Object type
Payload
Rocket body
Debris
Shape & HBR
Cyl, 1.5 m
Radar Cross Section
0.687 m², Medium (>0.1 m² and < 1m²)

Expand to show TLE details & history

TLE from 1 day ago
0 SCOUT B R/B
1 03341U 68066C   25174.39234067  .00000218  00000-0  22763-3 0  9994
2 03341  80.6621 327.5966 1116986 223.3535 127.4242 12.25998226519541
Epoch: 2025-06-23T09:24Z
TLE epoch observation values (Epoch: 2025-06-23T09:24:58.233Z)
Latitude
-0.00002°
Longitude
-85.44931°
Altitude
2,164.949 km
Speed
6.571 km/s
True Right ascension
21h 50m 23s
True Declination
0° 00' 00"
Sunlit
Object was in daylight at epoch
Visualization orbit readout
Latitude
-66.956°
Longitude
116.17754°
Altitude
787.931 km
Speed
7.829 km/s
Apparent Right ascension
13h 55m 42s
Apparent Declination
-57° 43' 36"
Sunlit
Object is in daylight
Visualization observer readout
Local Sidereal Time
03:21:46
Azimuth
149.296° SSE
Elevation
-67.449°
Doppler factor
1
Orbital elements
Apogee altitude
2,451.044 km
Perigee altitude
676.809 km
Semi-major axis
7,942.063 km
Eccentricity
0.1117
Inclination
80.6621°
RAAN
327.5966°
Arg. of periapsis
223.3535°
True anomaly
Unknown
Mean anomaly
127.4242°
Eccentric anomaly
Unknown
Mean motion
3.0665 °/min
Orbital period
117.4 mins
BSTAR
0.00022763
Loading maneuver chart data...
Loading SW <> Apogee altitude chart data...
Loading historical data...
Loading historical data...
Loading historical data...
Loading historical data...
Loading historical data...
Loading historical data...
Loading historical data...

SCOUT B R/B Visibility forecast

Observer location: undefined°, undefined°

Span
Click to sort rows by Start time (UTC) header in descending order
Start Az.
Max El. time (UTC)
Max El. Az.
Max El.
End time (UTC)
End Az.
6 mins2025-06-24 19:26:58.663Z23.781° NE2025-06-24 19:29:58.663Z42.036° NE11.875°2025-06-24 19:32:58.663Z62.826° ENE
14 mins2025-06-24 21:23:58.663Z356.204° N2025-06-24 21:31:58.663Z62.443° ENE41.032°2025-06-24 21:37:58.663Z151.198° SSE
11 mins2025-06-24 23:23:58.663Z325.755° NNW2025-06-24 23:29:58.663Z280.121° WNW21.913°2025-06-24 23:34:58.663Z233.188° WSW
15 mins2025-06-25 08:34:58.663Z110.034° ESE2025-06-25 08:41:58.663Z76.331° E19.726°2025-06-25 08:49:58.663Z37.902° NE
25 mins2025-06-25 10:26:58.663Z175.462° S2025-06-25 10:38:58.663Z91.898° ESE44.043°2025-06-25 10:51:58.663Z13.381° NNE
22 mins2025-06-25 12:27:58.663Z235.239° WSW2025-06-25 12:38:58.663Z296.3° NW31.092°2025-06-25 12:49:58.663Z356.503° N
|